Satellite-Ground Cal/Val Region Overpasses Predictions

Prediction of Satellite NPP Overpassing Cal/Val Region: PacNW

Region Location: (Latitude: 10.00, Longitude: 139.50) to (Latitude: 22.70, Longitude: 165.60).

Table of predicted overpasses for the next 14.0 days since TLE Epoch: 4/6/2024
Interval Starting Time Starting Location Ending Time Ending Location
1 04/06/2024 03:37:12 ( 10.05, 145.46) 04/06/2024 03:40:47 ( 22.67, 142.46)
2 04/06/2024 14:30:31 ( 12.34, 165.59) 04/06/2024 14:31:10 ( 10.05, 165.06)
3 04/06/2024 16:09:05 ( 22.67, 142.69) 04/06/2024 16:12:40 ( 10.05, 139.69)
4 04/07/2024 03:18:10 ( 10.05, 150.21) 04/07/2024 03:21:45 ( 22.67, 147.21)
5 04/07/2024 15:50:03 ( 22.67, 147.44) 04/07/2024 15:53:38 ( 10.05, 144.44)
6 04/08/2024 02:59:09 ( 10.05, 154.97) 04/08/2024 03:02:44 ( 22.67, 151.97)
7 04/08/2024 15:31:02 ( 22.67, 152.20) 04/08/2024 15:34:37 ( 10.05, 149.20)
8 04/09/2024 02:40:07 ( 10.05, 159.72) 04/09/2024 02:43:42 ( 22.67, 156.72)
9 04/09/2024 15:12:00 ( 22.67, 156.95) 04/09/2024 15:15:35 ( 10.05, 153.95)
10 04/10/2024 02:21:06 ( 10.05, 164.48) 04/10/2024 02:24:41 ( 22.67, 161.48)
11 04/10/2024 14:52:59 ( 22.67, 161.71) 04/10/2024 14:56:34 ( 10.05, 158.71)
12 04/11/2024 03:43:35 ( 10.05, 143.86) 04/11/2024 03:47:10 ( 22.68, 140.86)
13 04/11/2024 14:34:57 ( 19.15, 165.59) 04/11/2024 14:37:32 ( 10.05, 163.46)
14 04/11/2024 16:15:27 ( 22.66, 141.09) 04/11/2024 16:17:18 ( 16.15, 139.50)
15 04/12/2024 03:24:33 ( 10.06, 148.61) 04/12/2024 03:28:08 ( 22.68, 145.61)
16 04/12/2024 15:56:26 ( 22.66, 145.84) 04/12/2024 16:00:01 ( 10.04, 142.84)
17 04/13/2024 03:05:31 ( 10.00, 153.38) 04/13/2024 03:09:07 ( 22.68, 150.36)
18 04/13/2024 15:37:24 ( 22.66, 150.59) 04/13/2024 15:40:59 ( 10.04, 147.59)
19 04/14/2024 02:46:29 ( 10.01, 158.13) 04/14/2024 02:50:05 ( 22.69, 155.12)
20 04/14/2024 15:18:23 ( 22.65, 155.35) 04/14/2024 15:21:58 ( 10.03, 152.35)
21 04/15/2024 02:27:28 ( 10.01, 162.88) 04/15/2024 02:31:04 ( 22.69, 159.87)
22 04/15/2024 14:59:21 ( 22.64, 160.10) 04/15/2024 15:02:56 ( 10.02, 157.10)
23 04/16/2024 02:10:55 ( 18.77, 165.59) 04/16/2024 02:12:01 ( 22.64, 164.64)
24 04/16/2024 03:49:56 ( 10.02, 142.26) 04/16/2024 03:53:14 ( 21.65, 139.51)
25 04/16/2024 14:40:19 ( 22.70, 164.87) 04/16/2024 14:43:55 ( 10.02, 161.86)
26 04/17/2024 03:30:55 ( 10.03, 147.02) 04/17/2024 03:34:30 ( 22.66, 144.02)
27 04/17/2024 16:02:47 ( 22.68, 144.25) 04/17/2024 16:06:23 ( 10.00, 141.23)
28 04/18/2024 03:11:53 ( 10.04, 151.77) 04/18/2024 03:15:28 ( 22.67, 148.77)
29 04/18/2024 15:43:46 ( 22.67, 149.00) 04/18/2024 15:47:21 ( 10.05, 146.00)
30 04/19/2024 02:52:52 ( 10.05, 156.52) 04/19/2024 02:56:27 ( 22.68, 153.52)
31 04/19/2024 15:24:45 ( 22.66, 153.75) 04/19/2024 15:28:20 ( 10.04, 150.75)
